This demonstration page uses our WeatherBlox Daily Observations layout. Learn more.

Left ArrowRight Arrow

Hourly Observations for October 7, 2015

Temp ( °F °C ) Dew Point ( °F °C ) Humidity (%) Winds ( mph kmh ) Pressure ( in mb ) Visibility ( mi km ) Precip ( " mm )
12:15 am 00:15 Cloudy 61 16.2 58 14.5 90 90 Calm 30.12 1020 10 16 N/A
12:35 am 00:35 Cloudy 61 16.1 58 14.4 90 90 Calm 30.12 1020 10 16 N/A
12:55 am 00:55 Cloudy 61 16 58 14.3 90 90 Calm 30.12 1020 10 16 N/A
1:15 am 01:15 Cloudy 61 16 58 14.3 90 90 Calm 30.12 1020 10 16 N/A
1:35 am 01:35 Cloudy 60 15.8 58 14.3 91 91 Calm 30.12 1020 10 16 N/A
1:55 am 01:55 Cloudy 61 15.9 58 14.3 90 90 ENE 3 6 30.12 1020 10 16 N/A
2:15 am 02:15 Cloudy 60 15.8 58 14.5 92 92 Calm 30.12 1020 10 16 N/A
2:35 am 02:35 Cloudy 60 15.7 58 14.5 93 93 Calm 30.09 1019 10 16 N/A
2:55 am 02:55 Cloudy 60 15.8 58 14.5 92 92 Calm 30.09 1019 10 16 N/A
3:15 am 03:15 Cloudy 60 15.8 58 14.3 91 91 E 3 6 30.09 1019 10 16 N/A
3:35 am 03:35 Cloudy 60 15.8 58 14.3 91 91 E 3 6 30.09 1019 10 16 N/A
3:55 am 03:55 Cloudy 60 15.7 58 14.2 91 91 Calm 30.09 1019 10 16 N/A
4:15 am 04:15 Cloudy 60 15.8 57 14.1 90 90 E 3 6 30.09 1019 10 16 N/A
4:35 am 04:35 Cloudy 61 16 57 14 88 88 E 3 6 30.09 1019 10 16 N/A
4:55 am 04:55 Cloudy 60 15.6 57 13.9 90 90 E 3 6 30.06 1018 10 16 N/A
5:15 am 05:15 Cloudy 59 15.2 57 13.7 91 91 E 3 6 30.06 1018 10 16 N/A
5:35 am 05:35 Cloudy 59 15.1 56 13.5 90 90 E 3 6 30.09 1019 10 16 N/A
5:55 am 05:55 Cloudy 59 15.2 57 13.9 92 92 E 3 6 30.09 1019 10 16 N/A
6:15 am 06:15 Cloudy 60 15.5 57 14 91 91 E 3 6 30.09 1019 10 16 N/A
6:35 am 06:35 Cloudy 59 15.2 57 13.7 91 91 E 3 6 30.09 1019 10 16 N/A
6:55 am 06:55 Cloudy 60 15.5 57 14 91 91 SE 5 7 30.09 1019 10 16 N/A
7:15 am 07:15 Cloudy 59 15.2 56 13.5 90 90 SE 3 6 30.09 1019 10 16 N/A
7:35 am 07:35 Mostly Cloudy 58 14.2 55 12.7 91 91 SSE 3 6 30.12 1020 10 16 N/A
7:55 am 07:55 Partly Cloudy 57 14.1 55 12.9 93 93 Calm 30.15 1021 7 11 N/A
8:15 am 08:15 Cloudy 58 14.2 56 13.2 94 94 E 3 6 30.15 1021 7 11 N/A
8:35 am 08:35 Cloudy 59 15.1 57 14.1 94 94 E 5 7 30.12 1020 7 11 N/A
8:55 am 08:55 Cloudy 61 16 58 14.6 91 91 ESE 5 7 30.12 1020 10 16 N/A
9:15 am 09:15 Cloudy 62 16.5 58 14.6 89 89 SE 3 6 30.12 1020 10 16 N/A
9:35 am 09:35 Cloudy 62 16.7 58 14.4 86 86 SE 5 7 30.12 1020 10 16 N/A
9:55 am 09:55 Mostly Cloudy 64 17.6 59 14.9 84 84 Calm 30.09 1019 10 16 N/A
10:15 am 10:15 Mostly Cloudy 65 18.5 58 14.7 79 79 S 3 6 30.09 1019 10 16 N/A
10:35 am 10:35 Mostly Cloudy 67 19.4 59 14.9 75 75 SSW 5 7 30.09 1019 10 16 N/A
10:55 am 10:55 Cloudy 68 20.2 57 13.9 67 67 SW 7 11 30.09 1019 10 16 N/A
11:15 am 11:15 Cloudy 69 20.5 58 14.3 68 68 S 8 13 30.09 1019 10 16 N/A
11:35 am 11:35 Mostly Cloudy 69 20.6 57 13.9 66 66 SSW 9 15 30.09 1019 10 16 N/A
11:55 am 11:55 Sunny 71 21.5 57 14.1 63 63 S 9 15 30.06 1018 10 16 N/A
12:15 pm 12:15 Mostly Cloudy 71 21.6 58 14.5 64 64 SSW 14 22 30.06 1018 10 16 N/A
12:35 pm 12:35 Cloudy 70 21 57 13.9 64 64 S 10 17 30.06 1018 10 16 N/A
12:55 pm 12:55 Cloudy 70 21 58 14.2 65 65 S 10 17 30.06 1018 10 16 N/A
1:15 pm 13:15 Cloudy 70 21 57 14 64 64 S 7 11 30.06 1018 10 16 N/A
1:55 pm 13:55 Cloudy with Haze 72 22.4 57 14.1 60 60 S 15 24 30.03 1017 5 8 N/A
2:15 pm 14:15 Cloudy 73 23 58 14.7 60 60 S 13 20 30.00 1016 10 16 N/A
2:35 pm 14:35 Partly Cloudy 73 22.8 58 14.2 58 58 S 16 26 30.00 1016 10 16 N/A
2:55 pm 14:55 Mostly Cloudy 74 23.3 59 14.9 59 59 SSE 12 19 29.97 1015 10 16 N/A
3:15 pm 15:15 Partly Cloudy 73 23 58 14.5 59 59 S 16 26 29.97 1015 10 16 N/A
3:35 pm 15:35 Mostly Cloudy 73 22.9 58 14.5 59 59 S 13 20 29.94 1014 10 16 N/A
3:55 pm 15:55 Partly Cloudy 74 23.5 57 13.8 55 55 S 16 26 29.91 1013 10 16 N/A
4:15 pm 16:15 Partly Cloudy 75 23.7 57 13.7 54 54 SSE 20 31 29.91 1013 10 16 N/A
4:35 pm 16:35 Mostly Cloudy 75 23.7 57 13.8 54 54 S 16 26 29.91 1013 10 16 N/A
4:55 pm 16:55 Cloudy 74 23.6 58 14.2 56 56 S 15 24 29.91 1013 10 16 N/A
5:15 pm 17:15 Cloudy 74 23.2 58 14.5 58 58 S 12 19 29.94 1014 10 16 N/A
5:35 pm 17:35 Mostly Cloudy 74 23.2 59 15 60 60 S 10 17 29.94 1014 10 16 N/A
5:55 pm 17:55 Mostly Cloudy 73 23 59 15.1 61 61 S 8 13 29.94 1014 10 16 N/A
6:15 pm 18:15 Cloudy 73 22.6 60 15.3 64 64 S 9 15 29.94 1014 10 16 N/A
6:35 pm 18:35 Cloudy 73 22.8 59 15 62 62 SSE 14 22 29.94 1014 10 16 N/A
6:55 pm 18:55 Cloudy 73 22.5 59 15 63 63 SSE 10 17 29.94 1014 10 16 N/A
7:15 pm 19:15 Mostly Cloudy 71 21.7 59 14.8 65 65 SSE 10 17 29.94 1014 10 16 N/A
7:35 pm 19:35 Partly Cloudy 69 20.5 58 14.7 70 70 SSE 9 15 29.94 1014 10 16 N/A
7:55 pm 19:55 Clear 66 19.1 58 14.6 75 75 SSE 9 15 29.97 1015 10 16 N/A
8:15 pm 20:15 Clear 65 18.5 58 14.6 78 78 SSE 8 13 29.97 1015 10 16 N/A
8:35 pm 20:35 Clear 65 18.5 58 14.7 79 79 SSE 10 17 29.97 1015 10 16 N/A
8:55 pm 20:55 Clear 64 18 58 14.5 80 80 SSE 8 13 29.97 1015 10 16 N/A
9:15 pm 21:15 Clear 63 17.3 58 14.5 84 84 SSE 8 13 29.97 1015 10 16 N/A
9:35 pm 21:35 Clear 63 17.3 58 14.5 84 84 S 9 15 29.97 1015 10 16 N/A
9:55 pm 21:55 Clear 62 16.6 58 14.2 86 86 S 6 9 29.97 1015 10 16 N/A
10:15 pm 22:15 Clear 61 16.1 57 14.1 88 88 S 6 9 30.00 1016 10 16 N/A
10:35 pm 22:35 Clear 60 15.8 57 13.9 89 89 S 7 11 30.00 1016 10 16 N/A
10:55 pm 22:55 Clear 60 15.7 57 14 90 90 S 7 11 30.00 1016 10 16 N/A
11:15 pm 23:15 Clear 60 15.7 57 14 90 90 S 8 13 30.00 1016 10 16 N/A
11:35 pm 23:35 Clear 60 15.8 57 14 89 89 S 8 13 30.00 1016 10 16 N/A
11:55 pm 23:55 Clear 60 15.8 57 14 89 89 SSW 6 9 30.00 1016 10 16 N/A

Powered by AerisWeather